User: anonymous   Login
Location: Αθήνα
(37.9839°N, 23.7283°E)
Time: 19:11:32
(UTC+03:00)
Language:

FLOCK 4S 9 - Orbit

View from above orbital plane
View from above orbital plane
View from above satellite
View from above satellite

Ground track
Ground track

The orbit data is extracted from the following two-line orbital elements,

1 47478U 21006BT  24251.74123796  .00096737  00000-0  13472-2 0  9993
2 47478  97.3180 317.1629 0004324 248.8658 111.2135 15.56604017201746
Epoch (UTC): 07 September 2024 17:47:22
Eccentricity: 0.0004324
inclination: 97.3180°
perigee height: 394 km
apogee height: 400 km
right ascension of ascending node: 317.1629°
argument of perigee: 248.8658°
revolutions per day: 15.56604017
mean anomaly at epoch: 111.2135°
orbit number at epoch: 20174

The dashed part of the orbit path shows where the satellite is in the earth's shadow,  

DLR